IUS DEB, 43365

Orbit data source: Space-Track

IUS DEB, 43365 is space debris originally from a launch on Fri, 23 Jul 1999 UTC launched from the Air Force Eastern Test Range (AFETR). Debris objects in space refer to the collection of defunct objects orbiting the Earth. Examples of debris include non-operational satellites, rocket bodies, and fragments generated from explosions, collisions, or faulty payload assembly.

Loading next visibility...
Identifier
43365, 1999-040N
Orbit
Active
Country
Flag of USUS
Related business
Manufacturer
Boeing/Kent
Mission
Spacecraft
Bus & Motor
Unknown
Mass
Unknown
Launch date (UTC)
1999-07-23 (27 years ago)
Launch vehicle
Unknown
Launch site
Air Force Eastern Test Range (AFETR)
Object type
Payload
Rocket body
Debris
Shape & HBR
Unknown shape, 0.1 m
Radar Cross Section
Medium (>0.1 m² and <1 m²)

Expand to show TLE details & history
Last TLE update: 1 year ago

TLE from 1 year ago
0 IUS DEB
1 43365U 99040N   25129.13899230  .00000019  00000-0  00000-0 0  9997
2 43365  27.6693  92.4994 2851766 183.5340 173.9724  7.22077464323798
Epoch: 2025-05-09T03:20Z
TLE epoch observation values (Epoch: 2025-05-09T03:20:08.934Z)
Latitude
-0.00001°
Longitude
175.26272°
Altitude
8,140.789 km
Speed
4.435 km/s
True Right ascension
06h 09m 59s
True Declination
0° 00' 00"
Sunlit
Object was in daylight at epoch
Visualization orbit readout
Latitude
Unknown
Longitude
Unknown
Altitude
Unknown
Speed
Unknown
Apparent Right ascension
Unknown
Apparent Declination
Unknown
Sunlit
N/A
Visualization observer readout
Local Sidereal Time
21:35:13
Azimuth
Unknown
Elevation
Unknown
Doppler factor
Unknown
Orbital elements
Apogee altitude
8,157.163 km
Perigee altitude
1,706.49 km
Semi-major axis
11,309.964 km
Eccentricity
0.28518
Inclination
27.6693°
RAAN
92.4994°
Arg. of periapsis
183.534°
True anomaly
176.50043°
Mean anomaly
173.9724°
Eccentric anomaly
175.30874°
Mean motion
1.80448 °/min
Orbital period
199.5 mins
BSTAR
0
Loading maneuver chart data...
Computing Atmospheric mass density...
Loading historical data...
Loading historical data...
Loading historical data...
Loading historical data...
Loading historical data...
Loading historical data...
Loading historical data...

Documentation

Showing up to 5 results
|